Location: Tarleton Observatory
(32.2162°N, 98.0976°W)
Time: 05:51:42
(UTC-05:00)

Daily predictions for brighter satellites

Satellite Brightness Start Highest point End
(mag) Time Altitude Azimuth Time Altitude Azimuth Time Altitude Azimuth
SeaSat 1 4.1 00:09:19 26° NE 00:09:19 26° NE 00:12:43 10° N
Cosmos 1125 Rocket 4.1 00:13:45 54° NNW 00:13:45 54° NNW 00:18:05 10° N
Cosmos 2333 Rocket 2.7 00:08:25 10° NNW 00:13:18 56° WNW 00:13:18 56° WNW
SL-16 R/B 3.0 00:09:17 10° N 00:13:53 43° NE 00:13:53 43° NE
Cosmos 2297 Rocket 3.2 00:21:14 37° W 00:21:58 39° WNW 00:27:14 10° N
Cosmos 2219 Rocket 3.7 00:28:36 10° NW 00:32:19 27° W 00:32:19 27° W
Cosmos 2074 Rocket 4.3 00:38:42 60° NNE 00:38:42 60° NNE 00:43:50 10° N
Cosmos 2237 Rocket 4.1 01:00:35 10° NW 01:03:21 21° WNW 01:03:21 21° WNW
Lacrosse 4 Rocket 4.0 01:04:42 10° NNW 01:06:05 20° NW 01:06:05 20° NW
CZ-4C R/B 4.2 01:06:19 10° N 01:12:35 31° NE 01:15:06 25° E
ATLAS 3B R/B 3.3 01:13:29 10° NW 01:18:29 46° WNW 01:18:29 46° WNW
USA 238 DEB 3.9 01:23:08 10° NNW 01:29:28 68° NNE 01:29:28 68° NNE
USA 238 3.9 01:23:15 10° NNW 01:29:35 67° NNE 01:29:35 67° NNE
FALCON 9 R/B 3.6 01:21:24 10° WNW 01:30:02 41° W 01:30:02 41° W
Cosmos 2341 Rocket 4.4 01:41:50 59° N 01:41:50 59° N 01:46:55 10° N
Cosmos 2263 Rocket 3.5 01:44:27 35° NE 01:44:27 35° NE 01:47:47 10° NNE
Cosmos 2218 Rocket 4.5 02:04:59 55° NE 02:04:59 55° NE 02:10:03 10° NNE
CZ-2C R/B 3.9 02:05:47 10° N 02:09:02 35° NNW 02:09:02 35° NNW
Cosmos 2366 rocket 4.4 02:18:34 59° NNE 02:18:34 59° NNE 02:23:35 10° N
NOSS 3-4 (A) 4.1 02:21:45 50° NW 02:21:45 50° NW 02:27:42 10° NNE
NOSS 3-4 (C) 4.1 02:21:51 50° NW 02:21:51 50° NW 02:27:48 10° NNE
Cosmos 1943 4.1 02:16:09 10° NNW 02:19:55 43° NNW 02:19:55 43° NNW
NOSS 3-2 (A) 4.0 02:19:17 10° NNW 02:26:59 76° ENE 02:27:48 70° ESE
Cosmos 2056 Rocket 4.4 02:43:25 47° N 02:43:25 47° N 02:47:08 10° NNE
Cosmos 1727 Rocket 4.1 02:39:00 10° N 02:44:31 70° NNE 02:44:31 70° NNE
BREEZE-M DEB (TANK) 4.2 02:44:08 10° NW 02:53:00 56° NNE 02:53:00 56° NNE
CZ-4C R/B 3.2 02:54:16 10° NW 03:00:14 50° W 03:00:14 50° W
CZ-2D R/B 4.3 03:06:56 10° ENE 03:10:08 16° E 03:11:42 14° ESE
Meteor 1-20 Rocket 4.3 03:13:29 78° N 03:13:29 78° N 03:18:54 10° N
Okean 1 Rocket 4.2 03:17:27 43° NNE 03:17:27 43° NNE 03:20:33 10° NNE
SL-08 R/B 3.9 03:17:23 55° ENE 03:17:23 55° ENE 03:21:57 10° N
IRAS Rocket 4.2 03:11:39 10° NNE 03:16:47 78° NNE 03:16:47 78° NNE
Meteor 1-11 Rocket 4.4 03:20:47 44° ESE 03:21:36 47° E 03:27:17 10° NNE
Cosmos 1844 Rocket 2.7 03:23:18 81° NNE 03:23:18 81° NNE 03:28:41 10° NNE
Iridium 4 Rocket 4.3 03:19:52 10° NNW 03:23:10 40° NW 03:23:10 40° NW
Cosmos 1000 Rocket 4.4 03:20:16 10° N 03:26:25 76° E 03:27:09 67° SE
Cosmos 2263 Rocket 4.1 03:26:08 17° WNW 03:26:29 17° WNW 03:30:04 10° NNW
IRS-1C 4.2 03:23:29 10° NNE 03:28:43 72° E 03:28:43 72° E
USA 234 3.8 03:25:25 10° ESE 03:31:46 57° NE 03:38:08 10° NNW
Cosmos 1844 3.6 03:34:05 80° SE 03:34:10 81° ESE 03:39:55 10° NNE
Yuri Rocket 4.2 03:36:26 48° SE 03:36:26 48° SE 03:40:20 10° E
AQUA 4.1 03:32:50 10° N 03:36:51 60° NNW 03:36:51 60° NNW
SL-16 R/B 4.0 03:33:41 10° SE 03:39:08 33° ENE 03:44:34 10° N
Cosmos 1605 Rocket 4.3 03:40:47 44° SE 03:42:27 59° E 03:48:34 10° NNE
Cosmos 1025 Rocket 4.3 03:39:35 10° NNE 03:43:33 35° E 03:44:14 33° E
Cosmos 1821 Rocket 3.9 03:42:50 67° SW 03:43:37 76° W 03:50:02 10° N
GP-B 3.7 03:39:12 10° N 03:42:35 50° NNW 03:42:35 50° NNW
Meteor 2-21 Rocket 4.3 03:45:00 69° S 03:45:50 88° W 03:51:57 10° N
UNK 4.2 03:42:44 45° SW 03:45:50 87° NW 03:49:56 10° NE
CENTAUR R/B 3.6 03:38:18 10° NNW 03:46:10 59° ENE 03:54:19 10° SE
Cosmos 2278 Rocket 2.2 03:46:43 62° SSE 03:47:24 68° ESE 03:53:02 10° NNE
Cosmos 1452 Rocket 4.0 03:48:02 46° WNW 03:48:02 46° WNW 03:52:50 10° N
BREEZE-M DEB (TANK) 4.1 03:52:46 20° E 03:52:46 20° E 03:53:45 10° ENE
Resurs 1-4 Rocket 3.1 03:46:17 10° NNE 03:51:16 40° E 03:52:51 32° SE
Cosmos 2123 Rocket 4.3 03:45:50 10° N 03:52:08 66° E 03:54:57 34° SSE
COSMOS 2406 3.2 03:46:47 10° NNW 03:52:25 65° WSW 03:52:25 65° WSW
ARIANE 5 R/B 2.8 03:47:40 10° NNE 03:52:35 57° E 03:53:20 51° SE
Cosmos 1420 Rocket 3.9 03:57:31 73° WSW 03:57:55 78° WNW 04:03:14 10° NNE
Cosmos 1633 3.5 03:58:54 47° NE 03:58:54 47° NE 04:01:45 10° NNE
Cosmos 1315 Rocket 4.3 04:02:18 28° ESE 04:03:11 31° E 04:06:47 10° NNE
Cosmos 1544 Rocket 3.8 04:05:15 55° SE 04:05:48 61° E 04:10:09 10° NNE
ADEOS 3.7 04:01:08 10° N 04:06:15 57° WNW 04:06:45 54° W
COSMOS 2487 3.4 04:05:09 10° N 04:08:39 45° ENE 04:09:05 42° E
Meteor 2-16 Rocket 4.4 04:08:39 51° SW 04:10:06 68° W 04:16:15 10° N
OAO 3 Copernicus 4.2 04:10:09 66° WSW 04:10:52 89° NNW 04:15:55 10° ENE
USA 161 3.7 04:13:40 21° NNW 04:13:40 21° NNW 04:14:47 10° NNW
Cosmos 1140 Rocket 3.4 04:13:35 10° NNW 04:18:44 87° ENE 04:21:13 31° SSE
Meteor 2-4 Rocket 3.8 04:14:53 10° N 04:20:15 69° E 04:23:39 23° SSE
H-2A R/B 4.1 04:21:39 32° SW 04:25:06 40° SSW 05:06:16 10° SE
Okean 2 4.0 04:22:11 10° N 04:26:12 54° E 04:28:17 26° SSE
Cosmos 1536 3.5 04:30:04 39° WNW 04:30:04 39° WNW 04:33:41 10° N
ATLAS 2A CENTAUR R/B 3.9 04:27:20 29° WSW 04:31:46 57° S 05:15:35 10° ESE
Cosmos 1459 Rocket 4.4 04:28:34 17° SSE 04:33:28 61° E 04:39:40 10° NNE
Cosmos 1892 Rocket 3.4 04:29:30 10° N 04:33:52 85° W 04:35:22 41° S
Cosmos 1850 Rocket 3.9 04:29:38 10° NNW 04:34:54 88° WSW 04:39:18 15° SSE
UNKNOWN OBJECT B 2.9 04:31:26 10° NNE 04:35:32 81° ESE 04:36:47 44° S
Cosmos 1741 Rocket 3.9 04:32:04 10° NNW 04:37:21 87° WSW 04:41:52 14° SSE
Cosmos 2100 Rocket 4.2 04:34:24 20° S 04:38:53 73° E 04:45:10 10° N
SME Rocket 2.8 04:37:04 29° SSE 04:38:55 83° ENE 04:42:50 10° NNW
UNK 3.6 04:38:12 29° S 04:40:30 78° WSW 04:45:10 10° NNW
USA 129 4.5 04:41:02 15° E 04:41:43 18° ENE 04:43:15 10° NNE
CZ-2D R/B 2.4 04:45:07 10° N 04:50:24 53° WNW 04:53:01 29° SW
EO 1 Del DPAF 3.4 04:49:48 41° SW 04:50:41 50° W 04:54:29 10° NNW
Atlas Centaur 2 4.4 04:49:33 16° S 04:54:04 24° SSE 05:00:20 10° E
CZ-2D R/B 3.3 04:50:23 10° N 04:54:24 82° WNW 04:56:24 29° SSW
APEX 2.5 04:55:50 54° W 04:56:06 58° WNW 04:59:10 10° NNE
IRS-1D 4.5 04:56:05 10° N 05:00:26 30° WNW 05:02:21 23° WSW
Cosmos 1602 Rocket 3.8 05:00:15 10° N 05:04:35 70° E 05:08:55 10° SSE
Timation 2 Rocket 3.8 05:00:41 10° NNW 05:06:45 78° WSW 05:12:41 10° SSE
MTI 4.2 05:07:27 31° SSW 05:08:33 43° W 05:11:44 10° NNW
Cosmos 2061 Rocket 4.0 05:04:21 16° SSW 05:09:25 68° W 05:15:46 10° N
Okean O Rocket 1.5 05:06:38 10° N 05:10:58 72° WNW 05:14:05 18° SSW
USA 234 3.8 05:09:09 10° S 05:14:50 32° SW 05:20:34 10° WNW
Cosmos 614 Rocket 4.4 05:10:15 10° NNW 05:15:01 40° W 05:19:43 10° S
Cosmos 1455 Rocket 4.3 05:16:16 20° WSW 05:17:58 25° WNW 05:21:38 10° NNW
BREEZE-M DEB (TANK) 4.1 05:10:50 16° SSW 05:18:12 53° SE 05:21:29 10° ENE
Cosmos 2369 Rocket 4.4 05:14:24 10° SSE 05:18:42 22° E 05:23:00 10° NE
Cosmos 2098 Rocket 4.2 05:16:02 10° SSE 05:19:02 33° E 05:22:37 10° NNE
Cosmos 1626 Rocket 3.5 05:18:04 10° NNW 05:22:25 69° W 05:26:47 10° S
SL-16 R/B 3.3 05:18:07 14° SSW 05:22:37 32° W 05:28:06 10° NW
PAYLOAD B 4.3 05:18:50 10° N 05:24:24 72° WNW 05:29:58 10° SSW
Cosmos 1174 3.6 05:23:26 10° NNW 05:26:48 65° ENE 05:29:45 10° SE
PSLV R/B 3.2 05:26:34 20° WSW 05:28:47 83° SSE 05:32:08 10° ENE
PSLV R/B 4.5 05:26:16 10° NNE 05:30:21 47° E 05:34:23 10° S
Resurs 1-4 Rocket 3.6 05:26:57 10° NNW 05:30:46 20° WNW 05:33:57 12° WSW
ARIANE 5 R/B 4.5 05:28:56 10° NW 05:31:11 13° WNW 05:33:27 10° W
Cosmos 2278 Rocket 4.2 05:29:00 10° W 05:31:58 14° WNW 05:34:57 10° NNW
Yuri Rocket 3.7 05:26:41 10° W 05:32:04 44° SSW 05:36:21 10° ESE
CZ-2C R/B 4.0 05:30:04 10° S 05:34:40 52° W 05:39:20 10° NNW
ASC 2 Rocket 4.0 05:31:56 15° SW 05:34:44 27° S 05:38:12 10° SE
ATLAS 5 CENTAUR R/B 2.5 05:29:07 10° NW 05:35:08 57° WSW 05:41:28 10° SSE
Skynet4D Del rocket 4.1 05:31:07 12° WSW 05:35:36 39° S 05:40:50 10° ESE
CENTAUR R/B 3.9 05:29:56 10° NW 05:36:33 28° WSW 05:43:17 10° SSW
CZ-4B DEB 4.3 05:31:35 10° N 05:37:06 63° WNW 05:42:34 10° SSW
Cosmos 2016 Rocket 4.2 05:33:02 10° SSW 05:39:11 53° W 05:45:18 10° N
Thor Agena Rocket 3.6 05:40:03 10° S 05:45:11 62° WSW 05:50:16 10° NNW
ADEOS Rocket 4.0 05:40:10 10° NNE 05:45:29 45° E 05:51:09 10° S
CZ-4B R/B 3.7 05:45:02 10° N 05:49:17 41° WNW 05:53:26 10° SW
Cosmos 2233 Rocket 4.3 05:45:03 10° S 05:51:16 73° E 05:57:27 10° N
Cosmos 1606 Rocket 3.6 05:46:51 10° S 05:51:16 88° E 05:55:41 10° N
NOSS 8 (F) 4.5 05:48:48 10° SW 05:52:22 73° WNW 05:55:53 10° NNE
CZ-4B R/B 3.9 05:47:07 10° N 05:52:23 40° WNW 05:57:36 10° SW
ADEOS II 2.5 05:48:18 10° NNE 05:53:33 69° ESE 05:58:46 10° S
Cosmos 1725 Rocket 4.1 05:47:32 10° SSW 05:53:45 62° W 05:59:58 10° N
Cosmos 1346 Rocket 3.0 05:49:56 10° NNW 05:53:50 49° W 05:57:41 10° S
Cosmos 2082 Rocket 2.4 05:49:25 10° NNW 05:54:56 51° WSW 06:00:25 10° S
Cosmos 1975 4.4 05:53:19 10° SW 05:56:13 19° WNW 05:59:08 10° NNW
Cosmos 1743 2.7 05:53:03 10° SSW 05:56:51 67° W 06:00:39 10° N
Cosmos 1666 4.0 05:54:36 10° SSE 05:58:17 43° E 06:01:59 10° NNE
Cosmos 1500 4.3 05:59:37 10° SW 06:02:59 28° W 06:06:21 10° NNW
Meteor PRIRODA 3.6 05:59:54 10° N 06:03:35 89° W 06:07:15 10° SSW
Cosmos 1953 Rocket 3.7 06:01:56 10° N 06:06:20 79° E 06:10:39 10° S
Cosmos 2285 Rocket 4.5 06:00:24 10° SW 06:06:22 45° WNW 06:12:24 10° N
BREEZE M DEB (TANK) 4.1 05:59:36 10° NW 06:08:56 43° WSW 06:12:17 10° SSE
